This is the latest recevied weather packets stored in our database for station/object EA7AVH-10. If no packets are shown the sender has not sent any weather packets the latest 10 day(s).
| Time | Temp. | Humidity | Pressure | Rain* | Wind** | Luminosity | Snow |
|---|---|---|---|---|---|---|---|
| 1778032951 | 12.22° C | 48% | 919.2 hPa | - | - | - | - |
| 1778032050 | 11.67° C | 48% | 919.2 hPa | - | - | - | - |
| 1778031150 | 11.67° C | 47% | 919.4 hPa | - | - | - | - |
| 1778030249 | 12.78° C | 46% | 919.5 hPa | - | - | - | - |
| 1778029348 | 13.89° C | 45% | 919.5 hPa | - | - | - | - |
| 1778028447 | 13.33° C | 45% | 919.6 hPa | - | - | - | - |
| 1778027546 | 13.33° C | 45% | 919.7 hPa | - | - | - | - |
| 1778026646 | 13.89° C | 45% | 919.8 hPa | - | - | - | - |
| 1778025745 | 14.44° C | 44% | 919.9 hPa | - | - | - | - |
| 1778024844 | 14.44° C | 44% | 920.1 hPa | - | - | - | - |
| 1778023943 | 13.89° C | 44% | 920 hPa | - | - | - | - |
| 1778023042 | 15.56° C | 43% | 920.1 hPa | - | - | - | - |
| 1778022161 | 15° C | 43% | 920.1 hPa | - | - | - | - |
| 1778021261 | 15.56° C | 43% | 920 hPa | - | - | - | - |
| 1778020359 | 15.56° C | 42% | 920.1 hPa | - | - | - | - |
| 1778019458 | 15.56° C | 42% | 920.1 hPa | - | - | - | - |
| 1778018557 | 15.56° C | 41% | 920.3 hPa | - | - | - | - |
| 1778017657 | 15.56° C | 41% | 920.4 hPa | - | - | - | - |
| 1778016756 | 15.56° C | 40% | 920.5 hPa | - | - | - | - |
| 1778015855 | 15.56° C | 40% | 920.4 hPa | - | - | - | - |
| 1778014954 | 15.56° C | 39% | 920.6 hPa | - | - | - | - |
| 1778014053 | 16.11° C | 39% | 920.3 hPa | - | - | - | - |
| 1778013153 | 16.11° C | 38% | 920.3 hPa | - | - | - | - |
| 1778012252 | 16.11° C | 38% | 920.1 hPa | - | - | - | - |
| 1778011351 | 16.67° C | 38% | 919.9 hPa | - | - | - | - |
* Rain since midnight (hover to see other rain measurements)
** Current wind speed in m/s (hover to see current wind gust speed)